Time,TemperatureF,DewpointF,PressureIn,WindDirection,WindDirectionDegrees,WindSpeedMPH,WindSpeedGustMPH,Humidity,HourlyPrecipIn,Conditions,Clouds,dailyrainin,SoftwareType,DateUTC
2013-06-09 00:00:00,76.8,76.5,30.11,SE,143,0.0,0.0,99,0.00,CLR,,0.00,WeatherDisplay:10.37,2013-06-09 04:00:00,
2013-06-09 00:05:00,76.8,76.5,30.11,SE,143,0.0,0.0,99,0.00,CLR,,0.00,WeatherDisplay:10.37,2013-06-09 04:05:00,
2013-06-09 00:10:00,76.8,76.5,30.11,SE,143,0.0,0.0,99,0.00,CLR,,0.00,WeatherDisplay:10.37,2013-06-09 04:10:00,
2013-06-09 00:15:00,76.8,76.5,30.11,SE,143,0.0,0.0,99,0.00,CLR,,0.00,WeatherDisplay:10.37,2013-06-09 04:15:00,
2013-06-09 00:20:00,76.8,76.5,30.11,SE,143,0.0,0.0,99,0.00,CLR,,0.00,WeatherDisplay:10.37,2013-06-09 04:20:00,
2013-06-09 00:25:00,76.8,76.5,30.11,SE,143,0.0,0.0,99,0.00,CLR,,0.00,WeatherDisplay:10.37,2013-06-09 04:25:00,
2013-06-09 00:30:00,76.7,76.4,30.11,SE,140,0.0,1.0,99,0.00,CLR,,0.00,WeatherDisplay:10.37,2013-06-09 04:30:00,
2013-06-09 00:35:00,76.5,76.2,30.11,NE,50,0.0,1.0,99,0.00,CLR,,0.00,WeatherDisplay:10.37,2013-06-09 04:35:00,
2013-06-09 00:40:00,76.5,76.2,30.11,North,8,0.0,1.0,99,0.00,CLR,,0.00,WeatherDisplay:10.37,2013-06-09 04:40:00,
2013-06-09 00:45:00,76.5,76.2,30.11,NNE,32,0.0,1.0,99,0.00,CLR,,0.00,WeatherDisplay:10.37,2013-06-09 04:45:00,
2013-06-09 00:50:00,76.5,76.2,30.11,SE,130,0.0,0.0,99,0.00,CLR,,0.00,WeatherDisplay:10.37,2013-06-09 04:50:00,
2013-06-09 00:55:00,76.5,76.2,30.11,SE,143,0.0,0.0,99,0.00,CLR,,0.00,WeatherDisplay:10.37,2013-06-09 04:55:00,
2013-06-09 01:00:00,76.5,76.2,30.11,SE,143,0.0,0.0,99,0.00,CLR,,0.00,WeatherDisplay:10.37,2013-06-09 05:00:00,
2013-06-09 01:05:00,76.5,76.2,30.11,SE,143,0.0,0.0,99,0.00,CLR,,0.00,WeatherDisplay:10.37,2013-06-09 05:05:00,
2013-06-09 01:10:00,76.5,76.2,30.11,SE,143,0.0,0.0,99,0.00,CLR,,0.00,WeatherDisplay:10.37,2013-06-09 05:10:00,
2013-06-09 01:15:00,76.5,76.2,30.11,SE,143,0.0,0.0,99,0.00,CLR,,0.00,WeatherDisplay:10.37,2013-06-09 05:15:00,
2013-06-09 01:20:00,76.5,76.2,30.11,SE,143,0.0,0.0,99,0.00,CLR,,0.00,WeatherDisplay:10.37,2013-06-09 05:20:00,
2013-06-09 01:25:00,76.5,76.2,30.11,SE,143,0.0,0.0,99,0.00,CLR,,0.00,WeatherDisplay:10.37,2013-06-09 05:25:00,
2013-06-09 01:30:00,76.5,76.2,30.11,SE,143,0.0,0.0,99,0.00,CLR,,0.00,WeatherDisplay:10.37,2013-06-09 05:30:00,
2013-06-09 01:35:00,76.5,76.2,30.11,SE,143,0.0,0.0,99,0.00,CLR,,0.00,WeatherDisplay:10.37,2013-06-09 05:35:00,
2013-06-09 01:40:00,75.7,75.4,30.11,SE,143,0.0,0.0,99,0.00,CLR,,0.00,WeatherDisplay:10.37,2013-06-09 05:40:00,
2013-06-09 01:45:00,75.7,75.4,30.11,SE,143,0.0,0.0,99,0.00,CLR,,0.00,WeatherDisplay:10.37,2013-06-09 05:45:00,
2013-06-09 01:50:00,75.7,75.4,30.11,SE,143,0.0,0.0,99,0.00,CLR,,0.00,WeatherDisplay:10.37,2013-06-09 05:50:00,
2013-06-09 01:55:00,75.7,75.4,30.11,SE,143,0.0,0.0,99,0.00,CLR,,0.00,WeatherDisplay:10.37,2013-06-09 05:55:00,
2013-06-09 02:00:00,75.7,75.4,30.11,SE,143,0.0,0.0,99,0.00,CLR,,0.00,WeatherDisplay:10.37,2013-06-09 06:00:00,
2013-06-09 02:05:00,75.7,75.4,30.11,SE,143,0.0,0.0,99,0.00,CLR,,0.00,WeatherDisplay:10.37,2013-06-09 06:05:00,
2013-06-09 02:10:00,75.7,75.4,30.11,SE,143,0.0,0.0,99,0.00,CLR,,0.00,WeatherDisplay:10.37,2013-06-09 06:10:00,
2013-06-09 02:15:00,75.4,75.1,30.11,SSE,163,0.0,0.0,99,0.00,CLR,,0.00,WeatherDisplay:10.37,2013-06-09 06:15:00,
2013-06-09 02:20:00,75.4,75.1,30.11,South,186,0.0,0.0,99,0.00,CLR,,0.00,WeatherDisplay:10.37,2013-06-09 06:20:00,
2013-06-09 02:25:00,75.4,75.1,30.11,South,188,0.0,0.0,99,0.00,CLR,,0.00,WeatherDisplay:10.37,2013-06-09 06:25:00,
2013-06-09 02:35:00,75.2,74.9,30.11,South,188,0.0,0.0,99,0.00,CLR,,0.00,WeatherDisplay:10.37,2013-06-09 06:35:00,
2013-06-09 02:40:00,75.2,74.9,30.11,South,188,0.0,0.0,99,0.00,CLR,,0.00,WeatherDisplay:10.37,2013-06-09 06:40:00,
2013-06-09 02:45:00,75.2,74.9,30.11,South,188,0.0,0.0,99,0.00,CLR,,0.00,WeatherDisplay:10.37,2013-06-09 06:45:00,
2013-06-09 02:50:00,75.2,74.9,30.11,South,188,0.0,0.0,99,0.00,CLR,,0.00,WeatherDisplay:10.37,2013-06-09 06:50:00,
2013-06-09 02:55:00,75.2,74.9,30.11,South,188,0.0,0.0,99,0.00,CLR,,0.00,WeatherDisplay:10.37,2013-06-09 06:55:00,
2013-06-09 03:00:00,75.2,74.9,30.11,South,188,0.0,0.0,99,0.00,CLR,,0.00,WeatherDisplay:10.37,2013-06-09 07:00:00,
2013-06-09 03:05:00,74.8,74.5,30.10,South,188,0.0,0.0,99,0.00,CLR,,0.00,WeatherDisplay:10.37,2013-06-09 07:05:00,
2013-06-09 03:10:00,74.7,74.4,30.11,South,188,0.0,0.0,99,0.00,CLR,,0.00,WeatherDisplay:10.37,2013-06-09 07:10:00,
2013-06-09 03:20:00,74.7,74.4,30.11,South,188,0.0,0.0,99,0.00,CLR,,0.00,WeatherDisplay:10.37,2013-06-09 07:20:00,
2013-06-09 03:25:00,74.7,74.4,30.11,South,188,0.0,0.0,99,0.00,CLR,,0.00,WeatherDisplay:10.37,2013-06-09 07:25:00,
2013-06-09 03:30:00,74.7,74.4,30.11,South,188,0.0,0.0,99,0.00,CLR,,0.00,WeatherDisplay:10.37,2013-06-09 07:30:00,
2013-06-09 03:35:00,74.7,74.4,30.11,South,188,0.0,0.0,99,0.00,CLR,,0.00,WeatherDisplay:10.37,2013-06-09 07:35:00,
2013-06-09 03:40:00,74.7,74.4,30.11,South,188,0.0,0.0,99,0.00,CLR,,0.00,WeatherDisplay:10.37,2013-06-09 07:40:00,
2013-06-09 03:45:00,74.7,74.4,30.11,South,188,0.0,0.0,99,0.00,CLR,,0.00,WeatherDisplay:10.37,2013-06-09 07:45:00,
2013-06-09 03:50:00,74.7,74.4,30.11,South,188,0.0,0.0,99,0.00,CLR,,0.00,WeatherDisplay:10.37,2013-06-09 07:50:00,
2013-06-09 03:55:00,74.7,74.4,30.11,South,188,0.0,0.0,99,0.00,CLR,,0.00,WeatherDisplay:10.37,2013-06-09 07:55:00,
2013-06-09 04:00:00,74.7,74.4,30.11,South,188,0.0,0.0,99,0.00,CLR,,0.00,WeatherDisplay:10.37,2013-06-09 08:00:00,
2013-06-09 04:05:00,74.7,74.4,30.11,South,188,0.0,0.0,99,0.00,CLR,,0.00,WeatherDisplay:10.37,2013-06-09 08:05:00,
2013-06-09 04:10:00,74.7,74.4,30.11,South,188,0.0,0.0,99,0.00,CLR,,0.00,WeatherDisplay:10.37,2013-06-09 08:10:00,
2013-06-09 04:15:00,74.7,74.4,30.11,South,188,0.0,0.0,99,0.00,CLR,,0.00,WeatherDisplay:10.37,2013-06-09 08:15:00,
2013-06-09 04:20:00,74.7,74.4,30.11,South,188,0.0,0.0,99,0.00,CLR,,0.00,WeatherDisplay:10.37,2013-06-09 08:20:00,
2013-06-09 04:25:00,74.7,74.4,30.11,South,188,0.0,0.0,99,0.00,CLR,,0.00,WeatherDisplay:10.37,2013-06-09 08:25:00,
2013-06-09 04:30:00,74.7,74.4,30.11,South,188,0.0,0.0,99,0.00,CLR,,0.00,WeatherDisplay:10.37,2013-06-09 08:30:00,
2013-06-09 04:35:00,74.7,74.4,30.11,South,188,0.0,0.0,99,0.00,CLR,,0.00,WeatherDisplay:10.37,2013-06-09 08:35:00,
2013-06-09 04:40:00,74.7,74.4,30.11,South,188,0.0,0.0,99,0.00,CLR,,0.00,WeatherDisplay:10.37,2013-06-09 08:40:00,
2013-06-09 04:45:00,74.7,74.4,30.11,South,188,0.0,0.0,99,0.00,CLR,,0.00,WeatherDisplay:10.37,2013-06-09 08:45:00,
2013-06-09 04:50:00,74.7,74.4,30.11,South,188,0.0,0.0,99,0.00,CLR,,0.00,WeatherDisplay:10.37,2013-06-09 08:50:00,
2013-06-09 04:55:00,74.7,74.4,30.11,South,188,0.0,0.0,99,0.00,CLR,,0.00,WeatherDisplay:10.37,2013-06-09 08:55:00,
2013-06-09 05:00:00,74.7,74.4,30.11,South,188,0.0,0.0,99,0.00,CLR,,0.00,WeatherDisplay:10.37,2013-06-09 09:00:00,
2013-06-09 05:05:00,74.7,74.4,30.11,South,188,0.0,0.0,99,0.00,CLR,,0.00,WeatherDisplay:10.37,2013-06-09 09:05:00,
2013-06-09 05:10:00,74.7,74.4,30.11,South,188,0.0,0.0,99,0.00,CLR,,0.00,WeatherDisplay:10.37,2013-06-09 09:10:00,
2013-06-09 05:15:00,74.7,74.4,30.11,South,188,0.0,0.0,99,0.00,CLR,,0.00,WeatherDisplay:10.37,2013-06-09 09:15:00,
2013-06-09 05:20:00,74.7,74.4,30.11,South,188,0.0,0.0,99,0.00,CLR,,0.00,WeatherDisplay:10.37,2013-06-09 09:20:00,
2013-06-09 05:25:00,74.7,74.4,30.11,South,188,0.0,0.0,99,0.00,CLR,,0.00,WeatherDisplay:10.37,2013-06-09 09:25:00,
2013-06-09 05:30:00,74.7,74.4,30.11,South,188,0.0,0.0,99,0.00,CLR,,0.00,WeatherDisplay:10.37,2013-06-09 09:30:00,
2013-06-09 05:35:00,74.7,74.4,30.11,South,188,0.0,0.0,99,0.00,CLR,,0.00,WeatherDisplay:10.37,2013-06-09 09:35:00,
2013-06-09 05:40:00,74.7,74.4,30.11,South,188,0.0,0.0,99,0.00,CLR,,0.00,WeatherDisplay:10.37,2013-06-09 09:40:00,
2013-06-09 05:45:00,74.7,74.4,30.11,South,188,0.0,0.0,99,0.00,CLR,,0.00,WeatherDisplay:10.37,2013-06-09 09:45:00,
2013-06-09 05:50:00,74.7,74.4,30.11,South,188,0.0,0.0,99,0.00,CLR,,0.00,WeatherDisplay:10.37,2013-06-09 09:50:00,
2013-06-09 05:55:00,74.7,74.4,30.11,South,188,0.0,0.0,99,0.00,CLR,,0.00,WeatherDisplay:10.37,2013-06-09 09:55:00,
2013-06-09 06:00:00,74.7,74.4,30.11,South,188,0.0,0.0,99,0.00,CLR,,0.00,WeatherDisplay:10.37,2013-06-09 10:00:00,
2013-06-09 06:05:00,74.7,74.4,30.11,South,188,0.0,0.0,99,0.00,CLR,,0.00,WeatherDisplay:10.37,2013-06-09 10:05:00,
2013-06-09 06:10:00,74.7,74.4,30.11,South,188,0.0,0.0,99,0.00,CLR,,0.00,WeatherDisplay:10.37,2013-06-09 10:10:00,
2013-06-09 06:15:00,74.7,74.4,30.11,South,188,0.0,0.0,99,0.00,CLR,,0.00,WeatherDisplay:10.37,2013-06-09 10:15:00,
2013-06-09 06:20:00,74.7,74.4,30.11,South,188,0.0,0.0,99,0.00,CLR,,0.00,WeatherDisplay:10.37,2013-06-09 10:20:00,
2013-06-09 06:25:00,74.7,74.4,30.11,South,188,0.0,0.0,99,0.00,CLR,,0.00,WeatherDisplay:10.37,2013-06-09 10:25:00,
2013-06-09 06:30:00,74.7,74.4,30.11,South,188,0.0,0.0,99,0.00,CLR,,0.00,WeatherDisplay:10.37,2013-06-09 10:30:00,
2013-06-09 06:35:00,74.7,74.4,30.11,South,188,0.0,0.0,99,0.00,CLR,,0.00,WeatherDisplay:10.37,2013-06-09 10:35:00,
2013-06-09 06:40:00,74.7,74.4,30.11,South,188,0.0,0.0,99,0.00,CLR,,0.00,WeatherDisplay:10.37,2013-06-09 10:40:00,
2013-06-09 06:45:00,74.7,74.4,30.11,South,188,0.0,0.0,99,0.00,CLR,,0.00,WeatherDisplay:10.37,2013-06-09 10:45:00,
2013-06-09 06:50:00,74.7,74.4,30.11,South,188,0.0,0.0,99,0.00,CLR,,0.00,WeatherDisplay:10.37,2013-06-09 10:50:00,
2013-06-09 06:55:00,74.7,74.4,30.11,South,188,0.0,0.0,99,0.00,CLR,,0.00,WeatherDisplay:10.37,2013-06-09 10:55:00,
2013-06-09 07:00:00,74.7,74.4,30.11,South,188,0.0,0.0,99,0.00,CLR,,0.00,WeatherDisplay:10.37,2013-06-09 11:00:00,
2013-06-09 07:05:00,74.7,74.4,30.11,South,188,0.0,0.0,99,0.00,CLR,,0.00,WeatherDisplay:10.37,2013-06-09 11:05:00,
2013-06-09 07:10:00,74.7,74.4,30.11,South,188,0.0,0.0,99,0.00,CLR,,0.00,WeatherDisplay:10.37,2013-06-09 11:10:00,
2013-06-09 07:20:00,74.7,74.4,30.11,South,188,0.0,0.0,99,0.00,CLR,,0.00,WeatherDisplay:10.37,2013-06-09 11:20:00,
2013-06-09 07:25:00,74.7,74.4,30.11,South,188,0.0,0.0,99,0.00,CLR,,0.00,WeatherDisplay:10.37,2013-06-09 11:25:00,
2013-06-09 07:30:00,74.7,74.4,30.11,South,188,0.0,0.0,99,0.00,CLR,,0.00,WeatherDisplay:10.37,2013-06-09 11:30:00,
2013-06-09 07:35:00,74.7,74.4,30.11,South,188,0.0,0.0,99,0.00,CLR,,0.00,WeatherDisplay:10.37,2013-06-09 11:35:00,
2013-06-09 07:40:00,74.7,74.4,30.11,South,188,0.0,0.0,99,0.00,CLR,,0.00,WeatherDisplay:10.37,2013-06-09 11:40:00,
2013-06-09 07:45:00,74.7,74.4,30.11,South,188,0.0,0.0,99,0.00,CLR,,0.00,WeatherDisplay:10.37,2013-06-09 11:45:00,
2013-06-09 07:50:00,74.7,74.4,30.11,South,188,0.0,0.0,99,0.00,CLR,,0.00,WeatherDisplay:10.37,2013-06-09 11:50:00,
2013-06-09 07:55:00,74.7,74.4,30.11,South,188,0.0,0.0,99,0.00,CLR,,0.00,WeatherDisplay:10.37,2013-06-09 11:55:00,
2013-06-09 08:00:00,74.7,74.4,30.11,South,188,0.0,0.0,99,0.00,CLR,,0.00,WeatherDisplay:10.37,2013-06-09 12:00:00,
2013-06-09 08:05:00,74.7,74.4,30.11,South,188,0.0,0.0,99,0.00,CLR,,0.00,WeatherDisplay:10.37,2013-06-09 12:05:00,
2013-06-09 08:10:00,74.7,74.4,30.11,South,188,0.0,0.0,99,0.00,CLR,,0.00,WeatherDisplay:10.37,2013-06-09 12:10:00,
2013-06-09 08:15:00,74.7,74.4,30.11,South,188,0.0,0.0,99,0.00,CLR,,0.00,WeatherDisplay:10.37,2013-06-09 12:15:00,
2013-06-09 08:20:00,74.7,74.4,30.11,South,188,0.0,0.0,99,0.00,CLR,,0.00,WeatherDisplay:10.37,2013-06-09 12:20:00,
2013-06-09 08:25:00,74.7,74.4,30.11,South,188,0.0,0.0,99,0.00,CLR,,0.00,WeatherDisplay:10.37,2013-06-09 12:25:00,
2013-06-09 08:30:00,74.7,74.4,30.11,South,188,0.0,0.0,99,0.00,CLR,,0.00,WeatherDisplay:10.37,2013-06-09 12:30:00,
2013-06-09 08:35:00,74.7,74.4,30.11,South,188,0.0,0.0,99,0.00,CLR,,0.00,WeatherDisplay:10.37,2013-06-09 12:35:00,
2013-06-09 08:40:00,74.7,74.4,30.11,South,188,0.0,0.0,99,0.00,CLR,,0.00,WeatherDisplay:10.37,2013-06-09 12:40:00,
2013-06-09 08:45:00,74.7,74.4,30.11,South,188,0.0,0.0,99,0.00,CLR,,0.00,WeatherDisplay:10.37,2013-06-09 12:45:00,
2013-06-09 08:50:00,74.7,74.4,30.11,South,188,0.0,0.0,99,0.00,CLR,,0.00,WeatherDisplay:10.37,2013-06-09 12:50:00,
2013-06-09 08:55:00,74.7,74.4,30.11,South,188,0.0,0.0,99,0.00,CLR,,0.00,WeatherDisplay:10.37,2013-06-09 12:55:00,
2013-06-09 09:00:00,74.7,74.4,30.11,South,188,0.0,0.0,99,0.00,CLR,,0.00,WeatherDisplay:10.37,2013-06-09 13:00:00,
2013-06-09 09:05:00,74.7,74.4,30.11,South,188,0.0,0.0,99,0.00,CLR,,0.00,WeatherDisplay:10.37,2013-06-09 13:05:00,
2013-06-09 09:10:00,74.7,74.4,30.11,South,188,0.0,0.0,99,0.00,CLR,,0.00,WeatherDisplay:10.37,2013-06-09 13:10:00,
2013-06-09 09:15:00,74.7,74.4,30.11,South,188,0.0,0.0,99,0.00,CLR,,0.00,WeatherDisplay:10.37,2013-06-09 13:15:00,
2013-06-09 09:25:00,74.7,74.4,30.11,South,188,0.0,0.0,99,0.00,CLR,,0.00,WeatherDisplay:10.37,2013-06-09 13:25:00,
2013-06-09 09:30:00,74.7,74.4,30.11,South,188,0.0,0.0,99,0.00,CLR,,0.00,WeatherDisplay:10.37,2013-06-09 13:30:00,
2013-06-09 09:35:00,74.7,74.4,30.11,South,188,0.0,0.0,99,0.00,CLR,,0.00,WeatherDisplay:10.37,2013-06-09 13:35:00,
2013-06-09 09:40:00,74.7,74.4,30.11,South,188,0.0,0.0,99,0.00,CLR,,0.00,WeatherDisplay:10.37,2013-06-09 13:40:00,
2013-06-09 09:45:00,74.7,74.4,30.11,South,188,0.0,0.0,99,0.00,CLR,,0.00,WeatherDisplay:10.37,2013-06-09 13:45:00,
2013-06-09 09:50:00,74.7,74.4,30.11,South,188,0.0,0.0,99,0.00,CLR,,0.00,WeatherDisplay:10.37,2013-06-09 13:50:00,
2013-06-09 09:55:00,74.7,74.4,30.11,South,188,0.0,0.0,99,0.00,CLR,,0.00,WeatherDisplay:10.37,2013-06-09 13:55:00,
2013-06-09 10:00:00,74.7,74.4,30.11,South,188,0.0,0.0,99,0.00,CLR,,0.00,WeatherDisplay:10.37,2013-06-09 14:00:00,
2013-06-09 10:05:00,74.7,74.4,30.11,South,188,0.0,0.0,99,0.00,CLR,,0.00,WeatherDisplay:10.37,2013-06-09 14:05:00,
2013-06-09 10:10:00,84.6,82.6,30.16,South,187,0.0,3.0,94,0.00,CLR,,0.00,WeatherDisplay:10.37,2013-06-09 14:10:00,
2013-06-09 10:15:00,84.7,82.5,30.16,South,187,1.0,3.0,93,0.00,CLR,,0.00,WeatherDisplay:10.37,2013-06-09 14:15:00,
2013-06-09 10:20:00,84.9,82.0,30.16,South,191,0.0,2.0,91,0.00,CLR,,0.00,WeatherDisplay:10.37,2013-06-09 14:20:00,
2013-06-09 10:25:00,85.1,81.5,30.16,South,182,0.0,4.0,89,0.00,CLR,,0.00,WeatherDisplay:10.37,2013-06-09 14:25:00,
2013-06-09 10:35:00,85.6,81.0,30.16,SSE,162,0.0,2.0,86,0.00,CLR,,0.00,WeatherDisplay:10.37,2013-06-09 14:35:00,
2013-06-09 10:40:00,86.2,81.5,30.16,SSE,161,0.0,1.0,86,0.00,CLR,,0.00,WeatherDisplay:10.37,2013-06-09 14:40:00,
2013-06-09 10:45:00,86.4,81.3,30.16,South,184,0.0,2.0,85,0.00,CLR,,0.00,WeatherDisplay:10.37,2013-06-09 14:45:00,
2013-06-09 10:50:00,86.2,80.0,30.17,SSW,212,0.0,2.0,82,0.00,CLR,,0.00,WeatherDisplay:10.37,2013-06-09 14:50:00,
2013-06-09 10:55:00,86.2,80.0,30.16,SW,220,0.0,3.0,82,0.00,CLR,,0.00,WeatherDisplay:10.37,2013-06-09 14:55:00,
2013-06-09 11:00:00,86.2,80.0,30.16,SSW,197,0.0,2.0,82,0.00,CLR,,0.00,WeatherDisplay:10.37,2013-06-09 15:00:00,
2013-06-09 11:05:00,86.2,80.0,30.16,South,188,0.0,2.0,82,0.00,CLR,,0.00,WeatherDisplay:10.37,2013-06-09 15:05:00,
2013-06-09 11:10:00,86.0,80.2,30.17,SSW,213,0.0,2.0,83,0.00,CLR,,0.00,WeatherDisplay:10.37,2013-06-09 15:10:00,
2013-06-09 11:20:00,86.2,80.0,30.16,SSW,206,0.0,2.0,82,0.00,CLR,,0.00,WeatherDisplay:10.37,2013-06-09 15:20:00,
2013-06-09 11:30:00,86.4,80.6,30.16,WSW,258,0.0,0.0,83,0.00,CLR,,0.00,WeatherDisplay:10.37,2013-06-09 15:30:00,
2013-06-09 11:35:00,86.4,80.6,30.16,West,278,0.0,0.0,83,0.00,CLR,,0.00,WeatherDisplay:10.37,2013-06-09 15:35:00,
2013-06-09 11:40:00,86.4,80.6,30.16,West,278,0.0,0.0,83,0.00,CLR,,0.00,WeatherDisplay:10.37,2013-06-09 15:40:00,
2013-06-09 11:45:00,86.4,80.6,30.16,West,278,0.0,0.0,83,0.00,CLR,,0.00,WeatherDisplay:10.37,2013-06-09 15:45:00,
2013-06-09 11:50:00,86.5,80.4,30.16,WSW,255,0.0,2.0,82,0.00,CLR,,0.00,WeatherDisplay:10.37,2013-06-09 15:50:00,
2013-06-09 12:00:00,86.7,80.6,30.15,South,188,1.0,2.0,82,0.00,CLR,,0.00,WeatherDisplay:10.37,2013-06-09 16:00:00,
2013-06-09 12:05:00,86.5,81.1,30.15,WNW,284,1.0,4.0,84,0.00,CLR,,0.00,WeatherDisplay:10.37,2013-06-09 16:05:00,
2013-06-09 12:10:00,86.5,81.5,30.15,SSW,211,0.0,4.0,85,0.00,CLR,,0.00,WeatherDisplay:10.37,2013-06-09 16:10:00,
2013-06-09 12:15:00,86.7,81.3,30.15,South,182,0.0,2.0,84,0.00,CLR,,0.00,WeatherDisplay:10.37,2013-06-09 16:15:00,
2013-06-09 12:20:00,87.1,81.7,30.15,SSE,158,3.0,7.0,84,0.00,CLR,,0.00,WeatherDisplay:10.37,2013-06-09 16:20:00,
2013-06-09 12:25:00,87.1,81.3,30.15,South,175,1.0,6.0,83,0.00,CLR,,0.00,WeatherDisplay:10.37,2013-06-09 16:25:00,
2013-06-09 12:30:00,86.7,81.7,30.15,South,177,1.0,4.0,85,0.00,CLR,,0.00,WeatherDisplay:10.37,2013-06-09 16:30:00,
2013-06-09 12:35:00,86.7,81.3,30.15,SSE,151,0.0,4.0,84,0.00,CLR,,0.00,WeatherDisplay:10.37,2013-06-09 16:35:00,
2013-06-09 12:40:00,86.7,81.3,30.14,South,172,0.0,6.0,84,0.00,CLR,,0.00,WeatherDisplay:10.37,2013-06-09 16:40:00,
2013-06-09 12:45:00,87.1,81.3,30.14,SW,235,0.0,2.0,83,0.00,CLR,,0.00,WeatherDisplay:10.37,2013-06-09 16:45:00,
2013-06-09 12:50:00,86.9,81.5,30.14,WNW,289,0.0,4.0,84,0.00,CLR,,0.00,WeatherDisplay:10.37,2013-06-09 16:50:00,
2013-06-09 12:55:00,86.7,80.9,30.14,SSW,211,1.0,2.0,83,0.00,CLR,,0.00,WeatherDisplay:10.37,2013-06-09 16:55:00,
2013-06-09 13:00:00,86.7,80.9,30.14,South,188,1.0,2.0,83,0.00,CLR,,0.00,WeatherDisplay:10.37,2013-06-09 17:00:00,
2013-06-09 13:05:00,86.5,81.1,30.14,SSW,193,0.0,2.0,84,0.00,CLR,,0.00,WeatherDisplay:10.37,2013-06-09 17:05:00,
2013-06-09 13:10:00,86.7,80.9,30.13,South,169,0.0,2.0,83,0.00,CLR,,0.00,WeatherDisplay:10.37,2013-06-09 17:10:00,
2013-06-09 13:15:00,86.7,80.2,30.13,SSE,153,0.0,3.0,81,0.00,CLR,,0.00,WeatherDisplay:10.37,2013-06-09 17:15:00,
2013-06-09 13:20:00,86.7,80.9,30.13,South,174,0.0,3.0,83,0.00,CLR,,0.00,WeatherDisplay:10.37,2013-06-09 17:20:00,
2013-06-09 13:25:00,86.6,80.8,30.13,WSW,238,0.0,3.0,83,0.00,CLR,,0.00,WeatherDisplay:10.37,2013-06-09 17:25:00,
2013-06-09 13:30:00,86.2,79.3,30.14,WSW,240,0.0,3.0,80,0.00,CLR,,0.00,WeatherDisplay:10.37,2013-06-09 17:30:00,
2013-06-09 13:35:00,86.2,79.3,30.13,SW,233,0.0,2.0,80,0.00,CLR,,0.00,WeatherDisplay:10.37,2013-06-09 17:35:00,
2013-06-09 13:40:00,85.8,80.1,30.13,SSW,212,0.0,1.0,83,0.00,CLR,,0.00,WeatherDisplay:10.37,2013-06-09 17:40:00,
2013-06-09 13:45:00,85.8,80.1,30.13,South,190,0.0,1.0,83,0.00,CLR,,0.00,WeatherDisplay:10.37,2013-06-09 17:45:00,
2013-06-09 13:50:00,85.3,81.3,30.13,SE,138,1.0,6.0,88,0.00,CLR,,0.00,WeatherDisplay:10.37,2013-06-09 17:50:00,
2013-06-09 13:55:00,84.9,81.7,30.13,ENE,69,0.0,6.0,90,0.00,CLR,,0.00,WeatherDisplay:10.37,2013-06-09 17:55:00,
2013-06-09 14:00:00,84.7,81.8,30.13,NNE,29,0.0,2.0,91,0.00,CLR,,0.00,WeatherDisplay:10.37,2013-06-09 18:00:00,
2013-06-09 14:05:00,84.4,81.5,30.13,NW,311,0.0,3.0,91,0.00,CLR,,0.00,WeatherDisplay:10.37,2013-06-09 18:05:00,
2013-06-09 14:10:00,84.2,81.3,30.13,West,281,1.0,3.0,91,0.00,CLR,,0.00,WeatherDisplay:10.37,2013-06-09 18:10:00,
2013-06-09 14:15:00,84.2,81.6,30.13,WSW,238,0.0,2.0,92,0.00,CLR,,0.00,WeatherDisplay:10.37,2013-06-09 18:15:00,
2013-06-09 14:20:00,84.2,81.6,30.13,SSW,208,1.0,3.0,92,0.00,CLR,,0.00,WeatherDisplay:10.37,2013-06-09 18:20:00,
2013-06-09 14:25:00,84.2,81.6,30.13,ENE,78,0.0,2.0,92,0.00,CLR,,0.00,WeatherDisplay:10.37,2013-06-09 18:25:00,
2013-06-09 14:30:00,84.2,81.6,30.13,NE,53,0.0,2.0,92,0.00,CLR,,0.00,WeatherDisplay:10.37,2013-06-09 18:30:00,
2013-06-09 14:35:00,84.4,81.8,30.12,ENE,66,0.0,3.0,92,0.00,CLR,,0.00,WeatherDisplay:10.37,2013-06-09 18:35:00,
2013-06-09 14:40:00,84.7,82.2,30.12,NNE,19,0.0,1.0,92,0.00,CLR,,0.00,WeatherDisplay:10.37,2013-06-09 18:40:00,
2013-06-09 14:45:00,85.1,81.5,30.12,NNE,14,1.0,6.0,89,0.00,CLR,,0.00,WeatherDisplay:10.37,2013-06-09 18:45:00,
2013-06-09 14:50:00,85.1,81.5,30.11,South,182,1.0,6.0,89,0.00,CLR,,0.00,WeatherDisplay:10.37,2013-06-09 18:50:00,
2013-06-09 14:55:00,85.6,81.3,30.11,ENE,73,3.0,6.0,87,0.00,CLR,,0.00,WeatherDisplay:10.37,2013-06-09 18:55:00,
2013-06-09 15:00:00,86.0,81.3,30.11,ENE,68,1.0,6.0,86,0.00,CLR,,0.00,WeatherDisplay:10.37,2013-06-09 19:00:00,
2013-06-09 15:05:00,86.7,80.6,30.11,NE,47,0.0,7.0,82,0.00,CLR,,0.00,WeatherDisplay:10.37,2013-06-09 19:05:00,
2013-06-09 15:10:00,86.7,80.2,30.11,NNE,14,1.0,5.0,81,0.00,CLR,,0.00,WeatherDisplay:10.37,2013-06-09 19:10:00,
2013-06-09 15:15:00,86.2,79.7,30.11,NNW,341,1.0,4.0,81,0.00,CLR,,0.00,WeatherDisplay:10.37,2013-06-09 19:15:00,
2013-06-09 15:20:00,85.6,79.4,30.10,South,172,0.0,5.0,82,0.00,CLR,,0.00,WeatherDisplay:10.37,2013-06-09 19:20:00,
2013-06-09 15:25:00,84.9,79.5,30.10,SSE,162,0.0,3.0,84,0.00,CLR,,0.00,WeatherDisplay:10.37,2013-06-09 19:25:00,
2013-06-09 15:30:00,84.7,79.4,30.10,SSE,151,1.0,5.0,84,0.00,CLR,,0.00,WeatherDisplay:10.37,2013-06-09 19:30:00,
2013-06-09 15:35:00,85.0,80.7,30.10,SSE,158,0.0,5.0,87,0.00,CLR,,0.00,WeatherDisplay:10.37,2013-06-09 19:35:00,
2013-06-09 15:40:00,85.3,81.0,30.10,SSW,195,0.0,2.0,87,0.00,CLR,,0.00,WeatherDisplay:10.37,2013-06-09 19:40:00,
2013-06-09 15:45:00,85.1,80.4,30.10,SSW,204,1.0,5.0,86,0.00,CLR,,0.00,WeatherDisplay:10.37,2013-06-09 19:45:00,
2013-06-09 15:50:00,84.7,80.1,30.10,South,188,0.0,5.0,86,0.00,CLR,,0.00,WeatherDisplay:10.37,2013-06-09 19:50:00,
2013-06-09 15:55:00,84.4,79.7,30.10,NE,51,0.0,3.0,86,0.00,CLR,,0.00,WeatherDisplay:10.37,2013-06-09 19:55:00,
2013-06-09 16:00:00,84.0,79.7,30.10,East,95,1.0,5.0,87,0.00,CLR,,0.00,WeatherDisplay:10.37,2013-06-09 20:00:00,
2013-06-09 16:05:00,83.8,79.9,30.09,ESE,105,0.0,5.0,88,0.00,CLR,,0.00,WeatherDisplay:10.37,2013-06-09 20:05:00,
2013-06-09 16:10:00,83.7,80.1,30.09,SSE,161,0.0,2.0,89,0.00,CLR,,0.00,WeatherDisplay:10.37,2013-06-09 20:10:00,
2013-06-09 16:15:00,83.7,80.4,30.09,South,188,0.0,2.0,90,0.00,CLR,,0.00,WeatherDisplay:10.37,2013-06-09 20:15:00,
2013-06-09 16:20:00,83.7,80.4,30.09,SE,132,1.0,6.0,90,0.00,CLR,,0.00,WeatherDisplay:10.37,2013-06-09 20:20:00,
2013-06-09 16:25:00,83.5,80.6,30.09,ESE,115,1.0,6.0,91,0.00,CLR,,0.00,WeatherDisplay:10.37,2013-06-09 20:25:00,
2013-06-09 16:30:00,83.7,80.8,30.09,SSE,161,0.0,4.0,91,0.00,CLR,,0.00,WeatherDisplay:10.37,2013-06-09 20:30:00,
2013-06-09 16:35:00,84.6,82.0,30.09,South,191,1.0,5.0,92,0.00,CLR,,0.00,WeatherDisplay:10.37,2013-06-09 20:35:00,
2013-06-09 16:40:00,85.1,82.5,30.09,North,359,0.0,2.0,92,0.00,CLR,,0.00,WeatherDisplay:10.37,2013-06-09 20:40:00,
2013-06-09 16:45:00,85.5,81.8,30.09,East,87,1.0,6.0,89,0.00,CLR,,0.00,WeatherDisplay:10.37,2013-06-09 20:45:00,
2013-06-09 16:50:00,85.5,81.1,30.09,SSW,203,2.0,6.0,87,0.00,CLR,,0.00,WeatherDisplay:10.37,2013-06-09 20:50:00,
2013-06-09 16:55:00,84.8,80.9,30.10,SW,233,0.0,6.0,88,0.00,CLR,,0.00,WeatherDisplay:10.37,2013-06-09 20:55:00,
2013-06-09 17:00:00,84.4,80.8,30.10,SW,219,1.0,4.0,89,0.00,CLR,,0.00,WeatherDisplay:10.37,2013-06-09 21:00:00,
2013-06-09 17:05:00,84.2,80.3,30.10,SE,127,0.0,5.0,88,0.00,CLR,,0.00,WeatherDisplay:10.37,2013-06-09 21:05:00,
2013-06-09 17:10:00,84.0,80.4,30.10,East,93,0.0,3.0,89,0.00,CLR,,0.00,WeatherDisplay:10.37,2013-06-09 21:10:00,
2013-06-09 17:15:00,83.8,79.6,30.10,NNW,334,0.0,6.0,87,0.00,CLR,,0.00,WeatherDisplay:10.37,2013-06-09 21:15:00,
2013-06-09 17:20:00,83.7,79.4,30.11,WNW,292,0.0,4.0,87,0.00,CLR,,0.00,WeatherDisplay:10.37,2013-06-09 21:20:00,
2013-06-09 17:25:00,83.3,79.1,30.11,WNW,295,0.0,2.0,87,0.00,CLR,,0.00,WeatherDisplay:10.37,2013-06-09 21:25:00,
2013-06-09 17:30:00,83.3,79.0,30.11,NNW,335,0.0,1.0,87,0.00,CLR,,0.00,WeatherDisplay:10.37,2013-06-09 21:30:00,
2013-06-09 17:35:00,83.5,79.2,30.11,North,355,1.0,3.0,87,0.00,CLR,,0.00,WeatherDisplay:10.37,2013-06-09 21:35:00,
2013-06-09 17:40:00,83.7,79.0,30.11,SW,230,0.0,3.0,86,0.00,CLR,,0.00,WeatherDisplay:10.37,2013-06-09 21:40:00,
2013-06-09 17:45:00,83.8,78.8,30.11,West,279,1.0,4.0,85,0.00,CLR,,0.00,WeatherDisplay:10.37,2013-06-09 21:45:00,
2013-06-09 17:50:00,83.8,78.8,30.11,SSW,205,1.0,3.0,85,0.00,CLR,,0.00,WeatherDisplay:10.37,2013-06-09 21:50:00,
2013-06-09 17:55:00,83.5,78.5,30.10,SW,215,1.0,4.0,85,0.00,CLR,,0.00,WeatherDisplay:10.37,2013-06-09 21:55:00,
2013-06-09 18:00:00,83.1,78.1,30.11,SW,217,1.0,4.0,85,0.00,CLR,,0.00,WeatherDisplay:10.37,2013-06-09 22:00:00,
2013-06-09 18:05:00,82.9,78.3,30.11,SSW,201,1.0,6.0,86,0.00,CLR,,0.00,WeatherDisplay:10.37,2013-06-09 22:05:00,
2013-06-09 18:10:00,82.6,78.3,30.11,WSW,251,0.0,6.0,87,0.00,CLR,,0.00,WeatherDisplay:10.37,2013-06-09 22:10:00,
2013-06-09 18:15:00,82.4,78.5,30.11,WSW,253,0.0,2.0,88,0.00,CLR,,0.00,WeatherDisplay:10.37,2013-06-09 22:15:00,
2013-06-09 18:20:00,82.2,78.7,30.11,SSE,166,0.0,1.0,89,0.00,CLR,,0.00,WeatherDisplay:10.37,2013-06-09 22:20:00,
2013-06-09 18:25:00,82.2,79.0,30.11,SE,143,1.0,3.0,90,0.00,CLR,,0.00,WeatherDisplay:10.37,2013-06-09 22:25:00,
2013-06-09 18:30:00,82.0,79.2,30.11,SSE,160,0.0,5.0,91,0.00,CLR,,0.00,WeatherDisplay:10.37,2013-06-09 22:30:00,
2013-06-09 18:35:00,82.0,79.5,30.11,WSW,251,2.0,8.0,92,0.00,CLR,,0.00,WeatherDisplay:10.37,2013-06-09 22:35:00,
2013-06-09 18:40:00,81.9,79.6,30.11,SW,218,0.0,8.0,93,0.00,CLR,,0.00,WeatherDisplay:10.37,2013-06-09 22:40:00,
2013-06-09 18:45:00,81.7,79.5,30.11,SW,225,0.0,3.0,93,0.00,CLR,,0.00,WeatherDisplay:10.37,2013-06-09 22:45:00,
2013-06-09 18:50:00,81.5,79.6,30.11,WSW,242,0.0,6.0,94,0.00,CLR,,0.00,WeatherDisplay:10.37,2013-06-09 22:50:00,
2013-06-09 18:55:00,81.3,79.7,30.11,WSW,250,0.0,4.0,95,0.00,CLR,,0.00,WeatherDisplay:10.37,2013-06-09 22:55:00,
2013-06-09 19:00:00,81.1,79.6,30.11,SSW,192,0.0,3.0,95,0.00,CLR,,0.00,WeatherDisplay:10.37,2013-06-09 23:00:00,
2013-06-09 19:05:00,81.0,79.4,30.11,South,170,1.0,4.0,95,0.00,CLR,,0.00,WeatherDisplay:10.37,2013-06-09 23:05:00,
2013-06-09 19:10:00,80.8,79.2,30.11,South,188,0.0,3.0,95,0.00,CLR,,0.00,WeatherDisplay:10.37,2013-06-09 23:10:00,
2013-06-09 19:15:00,80.7,79.2,30.11,South,183,0.0,6.0,95,0.00,CLR,,0.00,WeatherDisplay:10.37,2013-06-09 23:15:00,
2013-06-09 19:20:00,80.6,79.4,30.11,SSW,198,0.0,2.0,96,0.00,CLR,,0.00,WeatherDisplay:10.37,2013-06-09 23:20:00,
2013-06-09 19:25:00,80.6,79.4,30.11,West,269,0.0,2.0,96,0.00,CLR,,0.00,WeatherDisplay:10.37,2013-06-09 23:25:00,
2013-06-09 19:30:00,80.4,79.2,30.11,West,261,0.0,1.0,96,0.00,CLR,,0.00,WeatherDisplay:10.37,2013-06-09 23:30:00,
2013-06-09 19:35:00,80.4,79.2,30.11,SW,217,0.0,2.0,96,0.00,CLR,,0.00,WeatherDisplay:10.37,2013-06-09 23:35:00,
2013-06-09 19:40:00,80.1,78.8,30.11,SW,231,0.0,2.0,96,0.00,CLR,,0.00,WeatherDisplay:10.37,2013-06-09 23:40:00,
2013-06-09 19:50:00,80.1,78.8,30.11,South,188,0.0,1.0,96,0.00,CLR,,0.00,WeatherDisplay:10.37,2013-06-09 23:50:00,
2013-06-09 19:55:00,79.7,78.5,30.11,South,188,0.0,1.0,96,0.00,CLR,,0.00,WeatherDisplay:10.37,2013-06-09 23:55:00,
2013-06-09 20:00:00,79.4,78.4,30.11,SE,146,0.0,0.0,97,0.00,CLR,,0.00,WeatherDisplay:10.37,2013-06-10 00:00:00,
2013-06-09 20:05:00,79.3,78.4,30.11,ENE,58,0.0,0.0,97,0.00,CLR,,0.00,WeatherDisplay:10.37,2013-06-10 00:05:00,
2013-06-09 20:10:00,79.3,78.3,30.11,ENE,57,0.0,1.0,97,0.00,CLR,,0.00,WeatherDisplay:10.37,2013-06-10 00:10:00,
2013-06-09 20:15:00,79.0,78.7,30.11,SSE,161,0.0,2.0,99,0.00,CLR,,0.00,WeatherDisplay:10.37,2013-06-10 00:15:00,
2013-06-09 20:20:00,78.8,78.5,30.12,SW,216,0.0,3.0,99,0.00,CLR,,0.00,WeatherDisplay:10.37,2013-06-10 00:20:00,
2013-06-09 20:25:00,78.8,78.5,30.12,SSW,193,0.0,3.0,99,0.00,CLR,,0.00,WeatherDisplay:10.37,2013-06-10 00:25:00,
2013-06-09 20:30:00,78.6,78.3,30.12,SSW,197,0.0,3.0,99,0.00,CLR,,0.00,WeatherDisplay:10.37,2013-06-10 00:30:00,
2013-06-09 20:35:00,78.6,78.3,30.12,ESE,121,0.0,2.0,99,0.00,CLR,,0.00,WeatherDisplay:10.37,2013-06-10 00:35:00,
2013-06-09 20:40:00,78.6,78.3,30.12,NE,53,0.0,0.0,99,0.00,CLR,,0.00,WeatherDisplay:10.37,2013-06-10 00:40:00,
2013-06-09 20:45:00,78.4,78.1,30.12,ESE,123,0.0,2.0,99,0.00,CLR,,0.00,WeatherDisplay:10.37,2013-06-10 00:45:00,
2013-06-09 20:50:00,78.4,78.1,30.12,South,188,0.0,2.0,99,0.00,CLR,,0.00,WeatherDisplay:10.37,2013-06-10 00:50:00,
2013-06-09 20:55:00,78.3,78.0,30.13,West,274,0.0,2.0,99,0.00,CLR,,0.00,WeatherDisplay:10.37,2013-06-10 00:55:00,
2013-06-09 21:00:00,78.3,78.0,30.13,NW,323,0.0,2.0,99,0.00,CLR,,0.00,WeatherDisplay:10.37,2013-06-10 01:00:00,
2013-06-09 21:05:00,78.1,77.8,30.13,NNW,341,0.0,2.0,99,0.00,CLR,,0.00,WeatherDisplay:10.37,2013-06-10 01:05:00,
2013-06-09 21:15:00,78.1,77.8,30.13,NW,323,0.0,2.0,99,0.00,CLR,,0.00,WeatherDisplay:10.37,2013-06-10 01:15:00,
2013-06-09 21:20:00,78.1,77.8,30.13,SE,143,0.0,2.0,99,0.00,CLR,,0.00,WeatherDisplay:10.37,2013-06-10 01:20:00,
2013-06-09 21:30:00,78.1,77.8,30.13,South,172,0.0,2.0,99,0.00,CLR,,0.00,WeatherDisplay:10.37,2013-06-10 01:30:00,
2013-06-09 21:35:00,78.1,77.8,30.13,South,172,0.0,2.0,99,0.00,CLR,,0.00,WeatherDisplay:10.37,2013-06-10 01:35:00,
2013-06-09 21:40:00,77.8,77.5,30.13,South,188,0.0,2.0,99,0.00,CLR,,0.00,WeatherDisplay:10.37,2013-06-10 01:40:00,
2013-06-09 21:45:00,77.7,77.4,30.13,SW,214,0.0,3.0,99,0.00,CLR,,0.00,WeatherDisplay:10.37,2013-06-10 01:45:00,
2013-06-09 21:50:00,77.7,77.4,30.13,SSE,165,0.0,3.0,99,0.00,CLR,,0.00,WeatherDisplay:10.37,2013-06-10 01:50:00,
2013-06-09 21:55:00,77.5,77.2,30.13,SE,136,0.0,2.0,99,0.00,CLR,,0.00,WeatherDisplay:10.37,2013-06-10 01:55:00,
2013-06-09 22:00:00,77.5,77.2,30.14,ESE,114,0.0,2.0,99,0.00,CLR,,0.00,WeatherDisplay:10.37,2013-06-10 02:00:00,
2013-06-09 22:05:00,77.7,77.4,30.14,SW,234,0.0,2.0,99,0.00,CLR,,0.00,WeatherDisplay:10.37,2013-06-10 02:05:00,
2013-06-09 22:10:00,77.7,77.4,30.14,WNW,293,0.0,1.0,99,0.00,CLR,,0.00,WeatherDisplay:10.37,2013-06-10 02:10:00,
2013-06-09 22:15:00,77.5,77.2,30.14,WNW,284,0.0,2.0,99,0.00,CLR,,0.00,WeatherDisplay:10.37,2013-06-10 02:15:00,
2013-06-09 22:20:00,77.5,77.2,30.14,WSW,243,0.0,1.0,99,0.00,CLR,,0.00,WeatherDisplay:10.37,2013-06-10 02:20:00,
2013-06-09 22:25:00,77.5,77.2,30.14,SSW,196,0.0,2.0,99,0.00,CLR,,0.00,WeatherDisplay:10.37,2013-06-10 02:25:00,
2013-06-09 22:30:00,77.5,77.2,30.14,South,186,0.0,2.0,99,0.00,CLR,,0.00,WeatherDisplay:10.37,2013-06-10 02:30:00,
2013-06-09 22:35:00,77.5,77.2,30.14,South,189,0.0,2.0,99,0.00,CLR,,0.00,WeatherDisplay:10.37,2013-06-10 02:35:00,
2013-06-09 22:40:00,77.5,77.2,30.14,SSE,150,0.0,1.0,99,0.00,CLR,,0.00,WeatherDisplay:10.37,2013-06-10 02:40:00,
2013-06-09 22:45:00,77.7,77.4,30.14,SSE,154,0.0,3.0,99,0.00,CLR,,0.00,WeatherDisplay:10.37,2013-06-10 02:45:00,
2013-06-09 22:50:00,77.7,77.4,30.14,South,173,0.0,4.0,99,0.00,CLR,,0.00,WeatherDisplay:10.37,2013-06-10 02:50:00,
2013-06-09 22:55:00,77.7,77.4,30.14,NE,51,0.0,3.0,99,0.00,CLR,,0.00,WeatherDisplay:10.37,2013-06-10 02:55:00,
2013-06-09 23:00:00,77.7,77.4,30.14,SE,125,0.0,51.0,99,0.00,CLR,,0.00,WeatherDisplay:10.37,2013-06-10 03:00:00,
2013-06-09 23:05:00,77.5,77.2,30.14,South,188,0.0,2.0,99,0.00,CLR,,0.00,WeatherDisplay:10.37,2013-06-10 03:05:00,
2013-06-09 23:10:00,77.5,77.2,30.14,South,188,0.0,2.0,99,0.00,CLR,,0.00,WeatherDisplay:10.37,2013-06-10 03:10:00,
2013-06-09 23:15:00,77.5,77.2,30.14,South,190,0.0,2.0,99,0.00,CLR,,0.00,WeatherDisplay:10.37,2013-06-10 03:15:00,
2013-06-09 23:20:00,77.5,77.2,30.13,SSW,199,0.0,2.0,99,0.00,CLR,,0.00,WeatherDisplay:10.37,2013-06-10 03:20:00,
2013-06-09 23:25:00,77.4,77.1,30.13,WSW,249,0.0,1.0,99,0.00,CLR,,0.00,WeatherDisplay:10.37,2013-06-10 03:25:00,
2013-06-09 23:30:00,77.4,77.1,30.13,West,259,0.0,3.0,99,0.00,CLR,,0.00,WeatherDisplay:10.37,2013-06-10 03:30:00,
2013-06-09 23:35:00,77.4,77.1,30.13,SSW,207,0.0,2.0,99,0.00,CLR,,0.00,WeatherDisplay:10.37,2013-06-10 03:35:00,
2013-06-09 23:40:00,77.4,77.1,30.14,SW,228,0.0,2.0,99,0.00,CLR,,0.00,WeatherDisplay:10.37,2013-06-10 03:40:00,
2013-06-09 23:50:00,77.5,77.2,30.13,SW,221,0.0,6.0,99,0.00,CLR,,0.00,WeatherDisplay:10.37,2013-06-10 03:50:00,
2013-06-09 23:55:00,77.5,77.2,30.13,SW,233,1.0,3.0,99,0.00,CLR,,0.00,WeatherDisplay:10.37,2013-06-10 03:55:00,